[Iaude] MPEC C126: 2024 CR2 [a=1.57,e=0.49,i=1.9,H=23.8]
    mpec at cfa.harvard.edu 
    mpec at cfa.harvard.edu
       
    Mon Feb 12 05:38:19 EST 2024
    
    
  
M.P.E.C. 2024-C126                            Issued 2024 February 12, 10:36 UT
     The Minor Planet Electronic Circulars contain information on unusual
         minor planets, routine data on comets and natural satellites,
         and occasional editorial announcements.  They are published
    on behalf of Division F of the International Astronomical Union by the
          Minor Planet Center, Smithsonian Astrophysical Observatory,
                          Cambridge, MA 02138, U.S.A.
			  
             Prepared using the Tamkin Foundation Computer Network
                              MPC at CFA.HARVARD.EDU
            URL https://www.minorplanetcenter.net/    ISSN 1523-6714
                                    2024 CR2                                    
Observations:
     K24C02R* C2024 02 10.98299511 32 45.050-25 14 28.61         19.01oVEC126M22
     K24C02R  C2024 02 10.98637311 32 42.763-25 13 31.51         19.01oVEC126M22
     K24C02R  C2024 02 10.98931411 32 40.802-25 12 41.54         18.81oVEC126M22
     K24C02R  C2024 02 10.99499111 32 36.962-25 11 04.24         18.82oVEC126M22
     K24C02R  C2024 02 11.06135 11 31 52.27 -24 52 10.9          18.9 GVEC126M28
     K24C02R  C2024 02 11.06342 11 31 50.90 -24 51 36.0          18.8 GVEC126M28
     K24C02R  C2024 02 11.12481411 31 26.80 -24 33 54.4                WEC126X09
     K24C02R  C2024 02 11.12718311 31 25.32 -24 33 16.0                WEC126X09
     K24C02R |C2024 02 11.25265011 30 05.870-23 59 06.70         18.5 GVEC126807
     K24C02R |C2024 02 11.25447011 30 04.720-23 58 36.80         19.1 GVEC126807
     K24C02R |C2024 02 11.25624011 30 03.600-23 58 07.80         18.9 GVEC126807
     K24C02R  C2024 02 11.87885 11 24 45.38 -21 17 30.7          18.9 GVEC126M28
     K24C02R  C2024 02 11.88087 11 24 44.32 -21 17 02.2          19.0 GVEC126M28
     K24C02R  C2024 02 11.88287 11 24 43.30 -21 16 33.5          19.0 GVEC126M28
     K24C02R  C2024 02 11.99633411 23 43.238-20 49 40.04         19.31oVEC126M22
     K24C02R  C2024 02 11.99816211 23 42.355-20 49 15.24         19.07oVEC126M22
     K24C02R  C2024 02 12.00132811 23 40.555-20 48 29.56         19.28oVEC126M22
     K24C02R  C2024 02 12.02553811 23 27.816-20 42 47.66         18.39oVEC126M22
     K24C02R 0B2024 02 12.04397 11 23 18.85 -20 38 53.2          18.9 VZEC126M49
     K24C02R 0B2024 02 12.04560 11 23 17.95 -20 38 29.9          18.6 VZEC126M49
     K24C02R 0B2024 02 12.04723 11 23 17.14 -20 38 07.0          18.9 VZEC126M49
     K24C02R KC2024 02 12.07693 11 23 03.15 -20 33 49.2                VEC126204
     K24C02R KC2024 02 12.08471 11 22 59.17 -20 31 59.9          19   GVEC126204
     K24C02R KC2024 02 12.36791 11 20 58.006-19 27 28.62         19.5 GVEC126U52
     K24C02R KC2024 02 12.37181 11 20 56.093-19 26 37.00         20.1 GVEC126U52
     K24C02R KC2024 02 12.37569 11 20 54.286-19 25 46.60         20.2 GVEC126U52
Observer details:
204 Schiaparelli Observatory.  Observer L. Buzzi.  0.84-m f/3.5 reflector +
    CMO.
807 Cerro Tololo Observatory, La Serena.  Observers T. Linder, R. Holmes.
    0.61-m f/11 Ritchey-Chretien + CCD.
M22 ATLAS South Africa, Sutherland.  Observers L. Denneau, R. Siverd, J.
    Tonry, H. Weiland.  Measurers L. Denneau, N. Erasmus, A. Fitzsimmons, A.
    Lawrence, J. Robinson, R. Siverd, J. Tonry, H. Weiland.  0.5-m Reflector +
    CCD.
M28 Lesedi Telescope-SAAO Observatory, Sutherland.  Observers N. Erasmus, S.
    Potter, C. van Gend, S. Chandra, H. Worters.  Measurers T. Ngwane, N.
    Erasmus.  1.0-m f/8 Reflector + CCD.
M49 IAS Remote Observatory, Hakos.  Observers D. Husar, M. Junius.  Measurer
    D. Husar.  0.25-m f/4.5 reflector + CMO.
U52 Shasta Valley Observatory, Grenada.  Observers J. E. Rogers, B. Haeusler.
    Measurers J. E. Rogers, D. Parrott.  0.30-m f/5.2 Helin Telescope + CCD.
X09 Deep Random Survey, Rio Hurtado.  Observers A. Schnabel, D. Ruhela.
    Measurer S. Deen.  0.43-m reflector + CMOS.
Orbital elements:
2024 CR2                                                 Earth MOID = 0.0055 AU
Epoch 2023 Sept. 13.0 TT = JDT 2460200.5                MPC                     
M 308.89344              (2000.0)            P               Q                  
n   0.49919622     Peri.  254.92324     +0.25967195     -0.96569689             
a   1.5738205      Node   180.02617     +0.89839174     +0.24157969             
e   0.4853884      Incl.    1.92179     +0.35420724     +0.09523012             
P   1.97           H   23.84          G   0.15           U   8                  
Residuals in seconds of arc
240210 M22  0.0   0.7+    240211 807  0.0   0.0     240212 M49  0.4+  0.1-
240210 M22  0.0   0.0     240211 807  0.0   0.2+    240212 M49  0.0   0.2+
240210 M22  0.5+  0.3-    240211 M28  0.2-  0.0     240212 M49  0.8+  0.1+
240210 M22  0.5+  0.1-    240211 M28  0.3-  0.3-    240212 204  0.1+  0.0
240211 M28  0.3-  0.1-    240211 M28  0.1+  0.2-    240212 204  0.1-  0.0
240211 M28  0.2-  0.6-    240211 M22  0.4-  0.6+    240212 U52  0.1+  0.5+
240211 X09  0.4-  0.2+    240211 M22  0.9+  0.4-    240212 U52  0.4-  0.6+
240211 X09  0.4-  0.2-    240212 M22  0.8-  0.4+    240212 U52  0.4+  0.3-
240211 807  0.1-  0.2-    240212 M22  0.3+  0.5-
Ephemeris:
2024 CR2                 a,e,i = 1.57, 0.49, 2                   q = 0.8099
Date    TT    R. A. (2000) Decl.     Delta      r    Elong.  Phase     V
2024 01 13    21 56 34.1 -22 45 42   0.1639  0.8504    32.8   141.3    26.6
...
2024 01 28    21 25 30.4 -39 14 07   0.06389 0.9263    23.1   155.3    27.3
...
2024 02 05    15 28 33.1 -65 54 49   0.03174 0.9773    73.4   104.8    20.2
...
2024 02 11    11 32 31.6 -25 10 16   0.04728 1.0186   131.2    46.8    19.0
2024 02 12    11 23 40.1 -20 49 34   0.05229 1.0257   136.7    41.3    19.1
2024 02 13    11 16 43.3 -17 13 19   0.05761 1.0328   141.4    36.6    19.2
...
2024 02 19    10 54 01.3 -04 38 26   0.09341 1.0765   159.9    18.4    19.8
...
2024 02 27    10 41 40.2 +02 18 48   0.1471  1.1364   173.5     5.7    20.4
...
2024 03 13    10 33 51.2 +07 17 11   0.2638  1.2503   164.7    12.1    22.2
A. U. Tomatic                (C) Copyright 2024 MPC           M.P.E.C. 2024-C126
    
    
More information about the Iaude
mailing list